ONEWEB-0651, 56080

Orbit data source: Space-Track

ONEWEB-0651, 56080 is a payload satellite owned by One Web (NAA) (UK) in LEO that was launched on Sun, 26 Mar 2023 UTC via a LVM3 launch vehicle from the Sirharikota (SRI). Payload-class satellites include a variety of spacecraft equipped with specific instruments for various scientific and technological missions. These include communications satellites like Starlink; space stations such as the ISS; scientific satellites like the Hubble; Earth observation satellites from companies like Planet Labs, Umbra, and HawkEye 360; GPS; miniature CubeSats for education and research; and military/defense satellites.

Loading next visibility...
Identifier
56080, 2023-043AL
Orbit
LEO
Country
Flag of UKUK
Related business
Manufacturer
One Web
Mission
Operational Commercial Communications
Bus & Motor
ARROW, Unknown motor
Mass
148 kg wet, ~140 kg dry
Launch date (UTC)
2023-03-26 (2 years ago)
Launch vehicle
LVM3
Launch site
Sirharikota (SRI)
Object type
Payload
Rocket body
Debris
Shape & HBR
Trap Box + 2 Pan, 2.5 m
Radar Cross Section
2.032 m², Large (>1 m²)

Expand to show TLE details & history
Last TLE update: 13 hours ago

TLE from 13 hours ago
0 ONEWEB-0651
1 56080U 23043AL  25250.26317713  .00000751  00000-0  19619-2 0  9996
2 56080  87.9056 315.6789 0002116  94.9677 265.1695 13.15543689120425
Epoch: 2025-09-07T06:18Z
TLE epoch observation values (Epoch: 2025-09-07T06:18:58.504Z)
Latitude
0.00001°
Longitude
-125.65003°
Altitude
1,204.82 km
Speed
7.252 km/s
True Right ascension
21h 02m 42s
True Declination
0° 00' 00"
Sunlit
Object was in full shadow at epoch
Visualization orbit readout
Latitude
Unknown
Longitude
Unknown
Altitude
Unknown
Speed
Unknown
Apparent Right ascension
Unknown
Apparent Declination
Unknown
Sunlit
N/A
Visualization observer readout
Local Sidereal Time
11:47:46
Azimuth
Unknown
Elevation
Unknown
Doppler factor
Unknown
Orbital elements
Apogee altitude
1,200.505 km
Perigee altitude
1,197.298 km
Semi-major axis
7,577.038 km
Eccentricity
0.00021
Inclination
87.9056°
RAAN
315.6789°
Arg. of periapsis
94.9677°
True anomaly
265.14534°
Mean anomaly
265.1695°
Eccentric anomaly
265.15742°
Mean motion
3.29074 °/min
Orbital period
109.4 mins
BSTAR
0.0019619
Loading maneuver chart data...
Computing Atmospheric mass density...
Loading historical data...
Loading historical data...
Loading historical data...
Loading historical data...
Loading historical data...
Loading historical data...
Loading historical data...

Documentation

Showing up to 5 results
|